"Sample Date","Sample Time","Sample Value","Units","Flow Rate","Sample Interval","Number Channels","Micron Size 0","Counts/Channel 0","Micron Size 1","Counts/Channel 1","Micron Size 2","Counts/Channel 2","Micron Size 3","Counts/Channel 3","Micron Size 4","Counts/Channel 4","Micron Size 5","Counts/Channel 5","Micron Size 6","Counts/Channel 6","Micron Size 7","Counts/Channel 7","Micron Size 8","Counts/Channel 8","Micron Size 9","Counts/Channel 9","Micron Size 10","Counts/Channel 10","Micron Size 11","Counts/Channel 11","Micron Size 12","Counts/Channel 12","Micron Size 13","Counts/Channel 13","Micron Size 14","Counts/Channel 14","Micron Size 15","Counts/Channel 15","Micron Size 16","Counts/Channel 16","Micron Size 17","Counts/Channel 17","Micron Size 18","Counts/Channel 18","Micron Size 19","Counts/Channel 19","Micron Size 20","Counts/Channel 20","Micron Size 21","Counts/Channel 21","Micron Size 22","Counts/Channel 22","Micron Size 23","Counts/Channel 23","Micron Size 24","Counts/Channel 24","Micron Size 25","Counts/Channel 25","Micron Size 26","Counts/Channel 26","Micron Size 27","Counts/Channel 27","Micron Size 28","Counts/Channel 28","Micron Size 29","Counts/Channel 29","Micron Size 30","Counts/Channel 30","Micron Size 31","Counts/Channel 31"
"04/04/08","19:00:04",27095.000,"cc",28353.707,6.00,6,0.100,25111.000,0.200,967.000,0.300,403.000,0.500,459.000,1.000,155.000,5.000,0
"04/04/08","19:00:10",27175.000,"cc",28332.328,6.00,6,0.100,25177.000,0.200,910.000,0.300,428.000,0.500,471.000,1.000,189.000,5.000,0
"04/04/08","19:00:16",27558.000,"cc",28340.514,6.00,6,0.100,25489.000,0.200,989.000,0.300,399.000,0.500,509.000,1.000,172.000,5.000,0
"04/04/08","19:00:22",27339.000,"cc",28275.678,6.00,6,0.100,25227.000,0.200,983.000,0.300,412.000,0.500,524.000,1.000,193.000,5.000,0
"04/04/08","19:00:28",27779.000,"cc",28310.281,6.00,6,0.100,25686.000,0.200,952.000,0.300,441.000,0.500,503.000,1.000,197.000,5.000,0
"04/04/08","19:00:34",27766.000,"cc",28316.766,6.00,6,0.100,25656.000,0.200,969.000,0.300,432.000,0.500,519.000,1.000,190.000,5.000,0
"04/04/08","19:00:40",27826.000,"cc",28300.699,6.00,6,0.100,25672.000,0.200,986.000,0.300,421.000,0.500,536.000,1.000,211.000,5.000,0
"04/04/08","19:00:46",27662.000,"cc",28362.367,6.00,6,0.100,25510.000,0.200,983.000,0.300,442.000,0.500,541.000,1.000,186.000,5.000,0
"04/04/08","19:00:52",27747.000,"cc",28312.469,6.00,6,0.100,25620.000,0.200,955.000,0.300,445.000,0.500,512.000,1.000,215.000,5.000,0
"04/04/08","19:00:58",27263.000,"cc",28292.555,6.00,6,0.100,25199.000,0.200,936.000,0.300,421.000,0.500,520.000,1.000,187.000,5.000,0
"04/04/08","19:01:04",27224.000,"cc",28316.315,6.00,6,0.100,25153.000,0.200,933.000,0.300,439.000,0.500,491.000,1.000,208.000,5.000,0
"04/04/08","19:01:10",27071.000,"cc",28349.891,6.00,6,0.100,24996.000,0.200,966.000,0.300,437.000,0.500,485.000,1.000,187.000,5.000,0
"04/04/08","19:01:16",27331.000,"cc",28331.168,6.00,6,0.100,25219.000,0.200,939.000,0.300,463.000,0.500,524.000,1.000,186.000,5.000,0
"04/04/08","19:01:22",27532.000,"cc",28325.162,6.00,6,0.100,25434.000,0.200,936.000,0.300,428.000,0.500,548.000,1.000,186.000,5.000,0
"04/04/08","19:01:28",27807.000,"cc",28295.566,6.00,6,0.100,25712.000,0.200,941.000,0.300,446.000,0.500,491.000,1.000,217.000,5.000,0
"04/04/08","19:01:34",27705.000,"cc",28314.619,6.00,6,0.100,25522.000,0.200,974.000,0.300,458.000,0.500,525.000,1.000,226.000,5.000,0
"04/04/08","19:01:40",28035.000,"cc",28253.412,6.00,6,0.100,25905.000,0.200,994.000,0.300,439.000,0.500,524.000,1.000,173.000,5.000,0
"04/04/08","19:01:46",28028.000,"cc",28367.100,6.00,6,0.100,25759.000,0.200,1023.000,0.300,472.000,0.500,552.000,1.000,222.000,5.000,0
"04/04/08","19:01:52",28167.000,"cc",28327.137,6.00,6,0.100,25945.000,0.200,962.000,0.300,476.000,0.500,583.000,1.000,201.000,5.000,0
"04/04/08","19:01:58",28268.000,"cc",28323.709,6.00,6,0.100,25982.000,0.200,1016.000,0.300,481.000,0.500,574.000,1.000,215.000,5.000,0
"04/04/08","19:02:04",28263.000,"cc",28237.416,6.00,6,0.100,26109.000,0.200,949.000,0.300,445.000,0.500,558.000,1.000,202.000,5.000,0
"04/04/08","19:02:10",28304.000,"cc",28309.506,6.00,6,0.100,26069.000,0.200,987.000,0.300,498.000,0.500,567.000,1.000,183.000,5.000,0
"04/04/08","19:02:16",28394.000,"cc",28367.926,6.00,6,0.100,26144.000,0.200,998.000,0.300,488.000,0.500,570.000,1.000,194.000,5.000,0
"04/04/08","19:02:22",28550.000,"cc",28332.094,6.00,6,0.100,26268.000,0.200,975.000,0.300,492.000,0.500,590.000,1.000,225.000,5.000,0
"04/04/08","19:02:28",28395.000,"cc",28329.902,6.00,6,0.100,26109.000,0.200,1036.000,0.300,458.000,0.500,590.000,1.000,202.000,5.000,0
"04/04/08","19:02:34",28554.000,"cc",28274.652,6.00,6,0.100,26136.000,0.200,1055.000,0.300,484.000,0.500,631.000,1.000,248.000,5.000,0
"04/04/08","19:02:40",28880.000,"cc",28278.514,6.00,6,0.100,26547.000,0.200,1030.000,0.300,456.000,0.500,591.000,1.000,256.000,5.000,0
"04/04/08","19:02:46",28528.000,"cc",28310.826,6.00,6,0.100,26103.000,0.200,1100.000,0.300,535.000,0.500,587.000,1.000,203.000,5.000,0
"04/04/08","19:02:52",28566.000,"cc",28350.313,6.00,6,0.100,26211.000,0.200,1097.000,0.300,484.000,0.500,572.000,1.000,202.000,5.000,0
"04/04/08","19:02:58",29135.000,"cc",28373.549,6.00,6,0.100,26712.000,0.200,1057.000,0.300,496.000,0.500,635.000,1.000,235.000,5.000,0
"04/04/08","19:03:04",28886.000,"cc",28322.510,6.00,6,0.100,26483.000,0.200,1062.000,0.300,485.000,0.500,630.000,1.000,226.000,5.000,0
"04/04/08","19:03:10",29058.000,"cc",28319.529,6.00,6,0.100,26599.000,0.200,1075.000,0.300,498.000,0.500,637.000,1.000,249.000,5.000,0
"04/04/08","19:03:16",28460.000,"cc",28361.531,6.00,6,0.100,26103.000,0.200,1037.000,0.300,485.000,0.500,620.000,1.000,215.000,5.000,0
"04/04/08","19:03:22",28775.000,"cc",28307.885,6.00,6,0.100,26382.000,0.200,1041.000,0.300,520.000,0.500,597.000,1.000,235.000,5.000,0
"04/04/08","19:03:28",28481.000,"cc",28263.145,6.00,6,0.100,26144.000,0.200,1056.000,0.300,482.000,0.500,585.000,1.000,214.000,5.000,0
"04/04/08","19:03:34",28653.000,"cc",28338.398,6.00,6,0.100,26378.000,0.200,1027.000,0.300,434.000,0.500,595.000,1.000,219.000,5.000,0
"04/04/08","19:03:40",28711.000,"cc",28315.262,6.00,6,0.100,26322.000,0.200,1039.000,0.300,527.000,0.500,591.000,1.000,232.000,5.000,0
"04/04/08","19:03:46",28705.000,"cc",28291.512,6.00,6,0.100,26313.000,0.200,1064.000,0.300,486.000,0.500,604.000,1.000,238.000,5.000,0
"04/04/08","19:03:52",28542.000,"cc",28357.537,6.00,6,0.100,26177.000,0.200,1081.000,0.300,469.000,0.500,579.000,1.000,236.000,5.000,0
"04/04/08","19:03:58",28910.000,"cc",28347.664,6.00,6,0.100,26576.000,0.200,1049.000,0.300,482.000,0.500,618.000,1.000,185.000,5.000,0
"04/04/08","19:04:04",28307.000,"cc",28351.313,6.00,6,0.100,26002.000,0.200,1030.000,0.300,471.000,0.500,589.000,1.000,215.000,5.000,0
"04/04/08","19:04:10",28267.000,"cc",28244.059,6.00,6,0.100,25919.000,0.200,1076.000,0.300,484.000,0.500,584.000,1.000,204.000,5.000,0
"04/04/08","19:04:16",28668.000,"cc",28286.068,6.00,6,0.100,26288.000,0.200,1088.000,0.300,467.000,0.500,615.000,1.000,210.000,5.000,0
"04/04/08","19:04:22",28407.000,"cc",28330.219,6.00,6,0.100,26189.000,0.200,1051.000,0.300,448.000,0.500,520.000,1.000,199.000,5.000,0
"04/04/08","19:04:28",28229.000,"cc",28293.307,6.00,6,0.100,26079.000,0.200,948.000,0.300,448.000,0.500,557.000,1.000,197.000,5.000,0
"04/04/08","19:04:34",28584.000,"cc",28378.570,6.00,6,0.100,26243.000,0.200,1035.000,0.300,495.000,0.500,586.000,1.000,225.000,5.000,0
"04/04/08","19:04:40",28265.000,"cc",28318.545,6.00,6,0.100,26002.000,0.200,1002.000,0.300,462.000,0.500,583.000,1.000,216.000,5.000,0
"04/04/08","19:04:46",28328.000,"cc",28265.420,6.00,6,0.100,26211.000,0.200,984.000,0.300,414.000,0.500,525.000,1.000,194.000,5.000,0
"04/04/08","19:04:52",28510.000,"cc",28338.520,6.00,6,0.100,26294.000,0.200,1022.000,0.300,468.000,0.500,526.000,1.000,200.000,5.000,0
"04/04/08","19:04:58",28394.000,"cc",28278.404,6.00,6,0.100,26142.000,0.200,1034.000,0.300,447.000,0.500,570.000,1.000,201.000,5.000,0
"04/04/08","19:05:04",28029.000,"cc",28341.580,6.00,6,0.100,25882.000,0.200,987.000,0.300,444.000,0.500,528.000,1.000,188.000,5.000,0
"04/04/08","19:05:10",28311.000,"cc",28323.744,6.00,6,0.100,26124.000,0.200,976.000,0.300,449.000,0.500,556.000,1.000,206.000,5.000,0
"04/04/08","19:05:16",28048.000,"cc",28323.207,6.00,6,0.100,25776.000,0.200,1049.000,0.300,513.000,0.500,523.000,1.000,187.000,5.000,0
"04/04/08","19:05:22",28516.000,"cc",28325.381,6.00,6,0.100,26205.000,0.200,1100.000,0.300,432.000,0.500,562.000,1.000,217.000,5.000,0
"04/04/08","19:05:28",28386.000,"cc",28320.830,6.00,6,0.100,26132.000,0.200,971.000,0.300,512.000,0.500,553.000,1.000,218.000,5.000,0
"04/04/08","19:05:34",28721.000,"cc",28294.369,6.00,6,0.100,26398.000,0.200,1038.000,0.300,499.000,0.500,576.000,1.000,210.000,5.000,0
"04/04/08","19:05:40",28564.000,"cc",28333.707,6.00,6,0.100,26245.000,0.200,1018.000,0.300,521.000,0.500,565.000,1.000,215.000,5.000,0
"04/04/08","19:05:46",28597.000,"cc",28311.863,6.00,6,0.100,26217.000,0.200,1085.000,0.300,485.000,0.500,600.000,1.000,210.000,5.000,0
"04/04/08","19:05:52",28397.000,"cc",28393.006,6.00,6,0.100,26096.000,0.200,1015.000,0.300,465.000,0.500,585.000,1.000,236.000,5.000,0
"04/04/08","19:05:58",28452.000,"cc",28289.297,6.00,6,0.100,26098.000,0.200,1003.000,0.300,512.000,0.500,606.000,1.000,233.000,5.000,0
"04/04/08","19:06:04",28776.000,"cc",28352.859,6.00,6,0.100,26406.000,0.200,1062.000,0.300,504.000,0.500,564.000,1.000,240.000,5.000,0
"04/04/08","19:06:10",28585.000,"cc",28283.734,6.00,6,0.100,26248.000,0.200,1070.000,0.300,478.000,0.500,583.000,1.000,206.000,5.000,0
"04/04/08","19:06:16",28994.000,"cc",28309.088,6.00,6,0.100,26628.000,0.200,1053.000,0.300,500.000,0.500,578.000,1.000,235.000,5.000,0
"04/04/08","19:06:22",28658.000,"cc",28347.129,6.00,6,0.100,26216.000,0.200,1097.000,0.300,518.000,0.500,593.000,1.000,234.000,5.000,0
"04/04/08","19:06:28",28661.000,"cc",28307.203,6.00,6,0.100,26286.000,0.200,1048.000,0.300,495.000,0.500,590.000,1.000,242.000,5.000,0
"04/04/08","19:06:34",28718.000,"cc",28250.609,6.00,6,0.100,26391.000,0.200,1028.000,0.300,473.000,0.500,594.000,1.000,232.000,5.000,0
"04/04/08","19:06:40",28451.000,"cc",28351.381,6.00,6,0.100,26137.000,0.200,1079.000,0.300,465.000,0.500,567.000,1.000,203.000,5.000,0
"04/04/08","19:06:46",28344.000,"cc",28247.461,6.00,6,0.100,26111.000,0.200,1038.000,0.300,451.000,0.500,541.000,1.000,203.000,5.000,0
"04/04/08","19:06:52",28448.000,"cc",28261.035,6.00,6,0.100,26226.000,0.200,1022.000,0.300,439.000,0.500,551.000,1.000,210.000,5.000,0
"04/04/08","19:06:58",28746.000,"cc",28306.287,6.00,6,0.100,26395.000,0.200,1104.000,0.300,481.000,0.500,553.000,1.000,213.000,5.000,0
"04/04/08","19:07:04",28801.000,"cc",28343.162,6.00,6,0.100,26499.000,0.200,1025.000,0.300,486.000,0.500,576.000,1.000,215.000,5.000,0
"04/04/08","19:07:10",28527.000,"cc",28425.604,6.00,6,0.100,26211.000,0.200,1062.000,0.300,479.000,0.500,569.000,1.000,206.000,5.000,0
"04/04/08","19:07:16",28833.000,"cc",28218.979,6.00,6,0.100,26482.000,0.200,1075.000,0.300,459.000,0.500,618.000,1.000,199.000,5.000,0
"04/04/08","19:07:22",28416.000,"cc",28315.107,6.00,6,0.100,26156.000,0.200,1041.000,0.300,444.000,0.500,547.000,1.000,228.000,5.000,0
"04/04/08","19:07:28",28928.000,"cc",28357.666,6.00,6,0.100,26543.000,0.200,1111.000,0.300,471.000,0.500,585.000,1.000,218.000,5.000,0
"04/04/08","19:07:34",28948.000,"cc",28333.260,6.00,6,0.100,26489.000,0.200,1100.000,0.300,527.000,0.500,607.000,1.000,225.000,5.000,0
"04/04/08","19:07:40",29141.000,"cc",28320.027,6.00,6,0.100,26742.000,0.200,1079.000,0.300,501.000,0.500,586.000,1.000,233.000,5.000,0
"04/04/08","19:07:46",28705.000,"cc",28284.844,6.00,6,0.100,26239.000,0.200,1087.000,0.300,534.000,0.500,595.000,1.000,250.000,5.000,0
"04/04/08","19:07:52",29297.000,"cc",28321.387,6.00,6,0.100,26853.000,0.200,1092.000,0.300,497.000,0.500,619.000,1.000,236.000,5.000,0
"04/04/08","19:07:58",29298.000,"cc",28334.305,6.00,6,0.100,26842.000,0.200,1104.000,0.300,466.000,0.500,627.000,1.000,259.000,5.000,0
"04/04/08","19:08:04",29130.000,"cc",28357.281,6.00,6,0.100,26648.000,0.200,1095.000,0.300,540.000,0.500,602.000,1.000,245.000,5.000,0
"04/04/08","19:08:10",28802.000,"cc",28281.520,6.00,6,0.100,26354.000,0.200,1103.000,0.300,493.000,0.500,608.000,1.000,244.000,5.000,0
"04/04/08","19:08:16",28906.000,"cc",28357.383,6.00,6,0.100,26463.000,0.200,1084.000,0.300,498.000,0.500,624.000,1.000,237.000,5.000,0
"04/04/08","19:08:22",29280.000,"cc",28287.469,6.00,6,0.100,26804.000,0.200,1116.000,0.300,484.000,0.500,630.000,1.000,246.000,5.000,0
"04/04/08","19:08:28",29329.000,"cc",28284.854,6.00,6,0.100,26822.000,0.200,1162.000,0.300,517.000,0.500,604.000,1.000,224.000,5.000,0
"04/04/08","19:08:34",29356.000,"cc",28308.824,6.00,6,0.100,26954.000,0.200,1069.000,0.300,496.000,0.500,595.000,1.000,242.000,5.000,0
"04/04/08","19:08:40",29358.000,"cc",28386.615,6.00,6,0.100,26903.000,0.200,1104.000,0.300,525.000,0.500,596.000,1.000,230.000,5.000,0
"04/04/08","19:08:46",29109.000,"cc",28362.582,6.00,6,0.100,26631.000,0.200,1146.000,0.300,479.000,0.500,616.000,1.000,237.000,5.000,0
"04/04/08","19:08:52",29237.000,"cc",28306.758,6.00,6,0.100,26849.000,0.200,1055.000,0.300,481.000,0.500,609.000,1.000,243.000,5.000,0
"04/04/08","19:08:58",29099.000,"cc",28303.213,6.00,6,0.100,26603.000,0.200,1100.000,0.300,534.000,0.500,622.000,1.000,240.000,5.000,0
"04/04/08","19:09:04",29089.000,"cc",28253.201,6.00,6,0.100,26604.000,0.200,1120.000,0.300,489.000,0.500,628.000,1.000,248.000,5.000,0
"04/04/08","19:09:10",29073.000,"cc",28359.141,6.00,6,0.100,26727.000,0.200,1067.000,0.300,462.000,0.500,607.000,1.000,210.000,5.000,0
"04/04/08","19:09:16",28948.000,"cc",28379.481,6.00,6,0.100,26559.000,0.200,1060.000,0.300,494.000,0.500,598.000,1.000,237.000,5.000,0
"04/04/08","19:09:22",29214.000,"cc",28272.967,6.00,6,0.100,26784.000,0.200,1076.000,0.300,493.000,0.500,606.000,1.000,255.000,5.000,0
"04/04/08","19:09:28",29193.000,"cc",28302.035,6.00,6,0.100,26818.000,0.200,1045.000,0.300,491.000,0.500,607.000,1.000,232.000,5.000,0
"04/04/08","19:09:34",29071.000,"cc",28332.283,6.00,6,0.100,26582.000,0.200,1138.000,0.300,504.000,0.500,608.000,1.000,239.000,5.000,0
"04/04/08","19:09:40",29362.000,"cc",28319.652,6.00,6,0.100,27006.000,0.200,1088.000,0.300,469.000,0.500,570.000,1.000,229.000,5.000,0
"04/04/08","19:09:46",29138.000,"cc",28267.908,6.00,6,0.100,26735.000,0.200,1043.000,0.300,495.000,0.500,609.000,1.000,256.000,5.000,0
"04/04/08","19:09:52",29136.000,"cc",28301.270,6.00,6,0.100,26716.000,0.200,1106.000,0.300,518.000,0.500,591.000,1.000,205.000,5.000,0
"04/04/08","19:09:58",29256.000,"cc",28363.377,6.00,6,0.100,26848.000,0.200,1099.000,0.300,507.000,0.500,589.000,1.000,213.000,5.000,0
"04/04/08","19:10:04",29200.000,"cc",28312.984,6.00,6,0.100,26808.000,0.200,1075.000,0.300,497.000,0.500,596.000,1.000,224.000,5.000,0
"04/04/08","19:10:10",29210.000,"cc",28274.828,6.00,6,0.100,26890.000,0.200,1011.000,0.300,486.000,0.500,592.000,1.000,231.000,5.000,0
"04/04/08","19:10:16",29219.000,"cc",28318.066,6.00,6,0.100,26929.000,0.200,1039.000,0.300,474.000,0.500,576.000,1.000,201.000,5.000,0
"04/04/08","19:10:22",29071.000,"cc",28316.859,6.00,6,0.100,26666.000,0.200,1030.000,0.300,455.000,0.500,677.000,1.000,243.000,5.000,0
"04/04/08","19:10:28",29096.000,"cc",28312.553,6.00,6,0.100,26711.000,0.200,1092.000,0.300,465.000,0.500,581.000,1.000,247.000,5.000,0
"04/04/08","19:10:34",28976.000,"cc",28301.834,6.00,6,0.100,26641.000,0.200,1075.000,0.300,481.000,0.500,573.000,1.000,206.000,5.000,0
"04/04/08","19:10:40",29195.000,"cc",28421.049,6.00,6,0.100,26710.000,0.200,1122.000,0.300,506.000,0.500,593.000,1.000,264.000,5.000,0
"04/04/08","19:10:46",28953.000,"cc",28362.770,6.00,6,0.100,26680.000,0.200,1007.000,0.300,458.000,0.500,587.000,1.000,221.000,5.000,0
"04/04/08","19:10:52",29011.000,"cc",28304.961,6.00,6,0.100,26724.000,0.200,1036.000,0.300,484.000,0.500,555.000,1.000,212.000,5.000,0
"04/04/08","19:10:58",29212.000,"cc",28318.365,6.00,6,0.100,26894.000,0.200,1108.000,0.300,482.000,0.500,541.000,1.000,187.000,5.000,0
"04/04/08","19:11:04",29108.000,"cc",28339.580,6.00,6,0.100,26776.000,0.200,1071.000,0.300,479.000,0.500,571.000,1.000,211.000,5.000,0
"04/04/08","19:11:10",29420.000,"cc",28244.342,6.00,6,0.100,27030.000,0.200,1088.000,0.300,478.000,0.500,599.000,1.000,225.000,5.000,0
"04/04/08","19:11:16",29223.000,"cc",28284.332,6.00,6,0.100,26805.000,0.200,1069.000,0.300,485.000,0.500,593.000,1.000,271.000,5.000,0
"04/04/08","19:11:22",29491.000,"cc",28274.545,6.00,6,0.100,27079.000,0.200,1099.000,0.300,480.000,0.500,611.000,1.000,222.000,5.000,0
"04/04/08","19:11:28",29833.000,"cc",28305.918,6.00,6,0.100,27356.000,0.200,1082.000,0.300,523.000,0.500,628.000,1.000,244.000,5.000,0
"04/04/08","19:11:34",29274.000,"cc",28359.264,6.00,6,0.100,26825.000,0.200,1115.000,0.300,460.000,0.500,649.000,1.000,225.000,5.000,0
"04/04/08","19:11:40",29397.000,"cc",28310.365,6.00,6,0.100,27023.000,0.200,1061.000,0.300,488.000,0.500,582.000,1.000,243.000,5.000,0
"04/04/08","19:11:46",29250.000,"cc",28296.371,6.00,6,0.100,26844.000,0.200,1106.000,0.300,426.000,0.500,651.000,1.000,223.000,5.000,0
"04/04/08","19:11:52",28921.000,"cc",28366.141,6.00,6,0.100,26629.000,0.200,1009.000,0.300,477.000,0.500,558.000,1.000,248.000,5.000,0
"04/04/08","19:11:58",29621.000,"cc",28306.744,6.00,6,0.100,27141.000,0.200,1095.000,0.300,527.000,0.500,652.000,1.000,206.000,5.000,0
"04/04/08","19:12:04",29685.000,"cc",28302.168,6.00,6,0.100,27090.000,0.200,1147.000,0.300,550.000,0.500,646.000,1.000,252.000,5.000,0
"04/04/08","19:12:10",29504.000,"cc",28358.699,6.00,6,0.100,27056.000,0.200,1107.000,0.300,505.000,0.500,597.000,1.000,239.000,5.000,0
"04/04/08","19:12:16",29438.000,"cc",28308.305,6.00,6,0.100,26938.000,0.200,1157.000,0.300,498.000,0.500,609.000,1.000,236.000,5.000,0
"04/04/08","19:12:22",29491.000,"cc",28374.902,6.00,6,0.100,26954.000,0.200,1160.000,0.300,536.000,0.500,604.000,1.000,237.000,5.000,0
"04/04/08","19:12:28",29240.000,"cc",28279.867,6.00,6,0.100,26752.000,0.200,1159.000,0.300,488.000,0.500,586.000,1.000,255.000,5.000,0
"04/04/08","19:12:34",29443.000,"cc",28293.510,6.00,6,0.100,26946.000,0.200,1125.000,0.300,553.000,0.500,598.000,1.000,221.000,5.000,0
"04/04/08","19:12:40",29454.000,"cc",28305.244,6.00,6,0.100,26963.000,0.200,1123.000,0.300,513.000,0.500,623.000,1.000,232.000,5.000,0
"04/04/08","19:12:46",29479.000,"cc",28293.357,6.00,6,0.100,26990.000,0.200,1124.000,0.300,483.000,0.500,640.000,1.000,242.000,5.000,0
"04/04/08","19:12:52",29193.000,"cc",28340.535,6.00,6,0.100,26721.000,0.200,1122.000,0.300,516.000,0.500,618.000,1.000,216.000,5.000,0
"04/04/08","19:12:58",29319.000,"cc",28338.588,6.00,6,0.100,26955.000,0.200,1117.000,0.300,445.000,0.500,594.000,1.000,208.000,5.000,0
"04/04/08","19:13:04",29368.000,"cc",28294.500,6.00,6,0.100,26815.000,0.200,1182.000,0.300,505.000,0.500,643.000,1.000,223.000,5.000,0
"04/04/08","19:13:10",29729.000,"cc",28340.332,6.00,6,0.100,27168.000,0.200,1160.000,0.300,523.000,0.500,635.000,1.000,243.000,5.000,0
"04/04/08","19:13:16",29762.000,"cc",28282.428,6.00,6,0.100,27158.000,0.200,1150.000,0.300,539.000,0.500,658.000,1.000,257.000,5.000,0
"04/04/08","19:13:22",29564.000,"cc",28337.533,6.00,6,0.100,26980.000,0.200,1201.000,0.300,536.000,0.500,629.000,1.000,218.000,5.000,0
"04/04/08","19:13:28",29372.000,"cc",28302.256,6.00,6,0.100,26846.000,0.200,1119.000,0.300,512.000,0.500,634.000,1.000,261.000,5.000,0
"04/04/08","19:13:34",29812.000,"cc",28302.035,6.00,6,0.100,27200.000,0.200,1156.000,0.300,540.000,0.500,680.000,1.000,236.000,5.000,0
"04/04/08","19:13:40",29647.000,"cc",28345.807,6.00,6,0.100,27005.000,0.200,1192.000,0.300,549.000,0.500,673.000,1.000,228.000,5.000,0
"04/04/08","19:13:46",29400.000,"cc",28322.357,6.00,6,0.100,26855.000,0.200,1143.000,0.300,498.000,0.500,670.000,1.000,234.000,5.000,0
"04/04/08","19:13:52",29479.000,"cc",28305.498,6.00,6,0.100,26911.000,0.200,1180.000,0.300,514.000,0.500,636.000,1.000,238.000,5.000,0
"04/04/08","19:13:58",29464.000,"cc",28327.565,6.00,6,0.100,26910.000,0.200,1179.000,0.300,522.000,0.500,614.000,1.000,239.000,5.000,0
"04/04/08","19:14:04",29609.000,"cc",28294.346,6.00,6,0.100,27042.000,0.200,1170.000,0.300,532.000,0.500,608.000,1.000,257.000,5.000,0
"04/04/08","19:14:10",29189.000,"cc",28346.029,6.00,6,0.100,26783.000,0.200,1107.000,0.300,489.000,0.500,606.000,1.000,204.000,5.000,0
"04/04/08","19:14:16",28899.000,"cc",28333.682,6.00,6,0.100,26493.000,0.200,1111.000,0.300,469.000,0.500,611.000,1.000,215.000,5.000,0
"04/04/08","19:14:22",29056.000,"cc",28329.272,6.00,6,0.100,26587.000,0.200,1162.000,0.300,477.000,0.500,594.000,1.000,236.000,5.000,0
"04/04/08","19:14:28",29094.000,"cc",28348.943,6.00,6,0.100,26725.000,0.200,1023.000,0.300,508.000,0.500,622.000,1.000,216.000,5.000,0
"04/04/08","19:14:34",28986.000,"cc",28304.356,6.00,6,0.100,26489.000,0.200,1137.000,0.300,527.000,0.500,572.000,1.000,261.000,5.000,0
"04/04/08","19:14:40",29369.000,"cc",28318.494,6.00,6,0.100,26784.000,0.200,1185.000,0.300,525.000,0.500,618.000,1.000,257.000,5.000,0
"04/04/08","19:14:46",29477.000,"cc",28312.045,6.00,6,0.100,26857.000,0.200,1220.000,0.300,519.000,0.500,641.000,1.000,240.000,5.000,0
"04/04/08","19:14:52",29669.000,"cc",28316.967,6.00,6,0.100,26994.000,0.200,1225.000,0.300,535.000,0.500,667.000,1.000,248.000,5.000,0
"04/04/08","19:14:58",29341.000,"cc",28352.426,6.00,6,0.100,26722.000,0.200,1224.000,0.300,501.000,0.500,659.000,1.000,235.000,5.000,0
"04/04/08","19:15:04",29274.000,"cc",28282.430,6.00,6,0.100,26743.000,0.200,1160.000,0.300,527.000,0.500,608.000,1.000,236.000,5.000,0
"04/04/08","19:15:10",29403.000,"cc",28322.955,6.00,6,0.100,26888.000,0.200,1180.000,0.300,468.000,0.500,632.000,1.000,235.000,5.000,0
"04/04/08","19:15:16",29398.000,"cc",28314.625,6.00,6,0.100,26822.000,0.200,1229.000,0.300,466.000,0.500,631.000,1.000,250.000,5.000,0
"04/04/08","19:15:22",29293.000,"cc",28313.408,6.00,6,0.100,26682.000,0.200,1200.000,0.300,532.000,0.500,631.000,1.000,248.000,5.000,0
"04/04/08","19:15:28",29590.000,"cc",28373.094,6.00,6,0.100,27012.000,0.200,1181.000,0.300,525.000,0.500,644.000,1.000,228.000,5.000,0
"04/04/08","19:15:34",29495.000,"cc",28302.852,6.00,6,0.100,26871.000,0.200,1229.000,0.300,542.000,0.500,607.000,1.000,246.000,5.000,0
"04/04/08","19:15:40",29484.000,"cc",28298.385,6.00,6,0.100,26824.000,0.200,1228.000,0.300,459.000,0.500,720.000,1.000,253.000,5.000,0
"04/04/08","19:15:46",29388.000,"cc",28324.334,6.00,6,0.100,26857.000,0.200,1124.000,0.300,507.000,0.500,664.000,1.000,236.000,5.000,0
"04/04/08","19:15:52",29622.000,"cc",28317.447,6.00,6,0.100,26959.000,0.200,1216.000,0.300,539.000,0.500,676.000,1.000,232.000,5.000,0
"04/04/08","19:15:58",29373.000,"cc",28332.094,6.00,6,0.100,26795.000,0.200,1217.000,0.300,481.000,0.500,653.000,1.000,227.000,5.000,0
"04/04/08","19:16:04",29413.000,"cc",28317.090,6.00,6,0.100,26866.000,0.200,1179.000,0.300,506.000,0.500,606.000,1.000,256.000,5.000,0
"04/04/08","19:16:10",30083.000,"cc",28266.713,6.00,6,0.100,27464.000,0.200,1155.000,0.300,540.000,0.500,667.000,1.000,257.000,5.000,0
"04/04/08","19:16:16",29416.000,"cc",28298.539,6.00,6,0.100,26809.000,0.200,1211.000,0.300,508.000,0.500,651.000,1.000,237.000,5.000,0
"04/04/08","19:16:22",29471.000,"cc",28346.254,6.00,6,0.100,26812.000,0.200,1210.000,0.300,552.000,0.500,630.000,1.000,267.000,5.000,0
"04/04/08","19:16:28",29658.000,"cc",28358.594,6.00,6,0.100,26934.000,0.200,1225.000,0.300,581.000,0.500,652.000,1.000,266.000,5.000,0
"04/04/08","19:16:34",29262.000,"cc",28299.285,6.00,6,0.100,26634.000,0.200,1232.000,0.300,497.000,0.500,674.000,1.000,225.000,5.000,0
"04/04/08","19:16:40",29531.000,"cc",28274.772,6.00,6,0.100,26873.000,0.200,1215.000,0.300,548.000,0.500,648.000,1.000,247.000,5.000,0